| time (UTC) | temp F | wind direction | speed MPH | gust MPH | rain 1hr in | rain 24hr in | rain mn in | humidity % | barometer mb |
| 20260505153003 | 68 | 112 | 10.0 | 14.0 | 0.00 | 0.00 | 0.00 | 77 | 1012.3 |
| 20260505152503 | 68 | 139 | 9.0 | 15.0 | 0.00 | 0.00 | 0.00 | 77 | 1011.3 |
| 20260505152003 | 68 | 156 | 10.0 | 15.0 | 0.00 | 0.00 | 0.00 | 76 | 1011.3 |
| 20260505151503 | 68 | 149 | 11.0 | 15.0 | 0.00 | 0.00 | 0.00 | 76 | 1011.3 |
| 20260505151217 | 68 | 145 | 11.0 | 15.0 | 0.00 | 0.00 | 0.00 | 76 | 1011.3 |
| 20260505150505 | 68 | 141 | 11.0 | 14.0 | 0.00 | 0.00 | 0.00 | 76 | 1011.3 |
| 20260505140504 | 68 | 146 | 12.0 | 17.0 | 0.00 | 0.00 | 0.00 | 75 | 1012.3 |
| 20260505130213 | 69 | 141 | 11.0 | 15.0 | 0.00 | 0.00 | 0.00 | 74 | 1012.3 |
| 20260505124503 | 69 | 137 | 10.0 | 13.0 | 0.00 | 0.00 | 0.00 | 74 | 1012.3 |
| 20260505124003 | 69 | 148 | 13.0 | 20.0 | 0.00 | 0.00 | 0.00 | 74 | 1012.3 |
| 20260505123503 | 68 | 147 | 14.0 | 20.0 | 0.00 | 0.00 | 0.00 | 74 | 1012.3 |
| 20260505123004 | 69 | 139 | 12.0 | 15.0 | 0.00 | 0.00 | 0.00 | 74 | 1012.3 |
| 20260505122714 | 69 | 138 | 13.0 | 17.0 | 0.00 | 0.00 | 0.00 | 74 | 1012.3 |
| 20260505122003 | 69 | 135 | 11.0 | 17.0 | 0.00 | 0.00 | 0.00 | 75 | 1013.3 |
| 20260505121503 | 69 | 133 | 10.0 | 17.0 | 0.00 | 0.00 | 0.00 | 74 | 1013.3 |
| 20260505121004 | 69 | 135 | 10.0 | 17.0 | 0.00 | 0.00 | 0.00 | 74 | 1013.3 |
| 20260505120503 | 69 | 131 | 10.0 | 15.0 | 0.00 | 0.00 | 0.00 | 74 | 1013.3 |
| 20260505120213 | 69 | 136 | 11.0 | 15.0 | 0.00 | 0.00 | 0.00 | 74 | 1013.3 |
| 20260505115504 | 69 | 144 | 10.0 | 15.0 | 0.00 | 0.00 | 0.00 | 75 | 1013.3 |
| 20260505115003 | 69 | 148 | 10.0 | 13.0 | 0.00 | 0.00 | 0.00 | 75 | 1013.3 |
| 20260505114712 | 69 | 147 | 11.0 | 15.0 | 0.00 | 0.00 | 0.00 | 75 | 1013.3 |
| 20260505114003 | 69 | 148 | 12.0 | 21.0 | 0.00 | 0.00 | 0.00 | 75 | 1013.3 |
| 20260505113503 | 69 | 159 | 10.0 | 14.0 | 0.00 | 0.00 | 0.00 | 75 | 1013.3 |
| 20260505113216 | 68 | 147 | 13.0 | 17.0 | 0.00 | 0.00 | 0.00 | 75 | 1013.3 |
| 20260505112503 | 68 | 146 | 14.0 | 17.0 | 0.00 | 0.00 | 0.00 | 75 | 1013.3 |
| 20260505112003 | 69 | 153 | 11.0 | 19.0 | 0.00 | 0.00 | 0.00 | 75 | 1013.3 |
| 20260505111503 | 68 | 145 | 12.0 | 19.0 | 0.00 | 0.00 | 0.00 | 75 | 1013.3 |
| 20260505111003 | 68 | 146 | 14.0 | 18.0 | 0.00 | 0.00 | 0.00 | 75 | 1013.3 |
| 20260505110503 | 68 | 148 | 13.0 | 17.0 | 0.00 | 0.00 | 0.00 | 75 | 1013.3 |
| 20260505102004 | 68 | 146 | 13.0 | 19.0 | 0.00 | 0.00 | 0.00 | 77 | 1013.3 |
| 20260505101504 | 68 | 142 | 12.0 | 18.0 | 0.00 | 0.00 | 0.00 | 77 | 1013.3 |
| 20260505101004 | 68 | 142 | 12.0 | 16.0 | 0.00 | 0.00 | 0.00 | 77 | 1013.3 |
| 20260505100504 | 67 | 151 | 13.0 | 18.0 | 0.00 | 0.00 | 0.00 | 77 | 1013.3 |
| 20260505100004 | 67 | 145 | 14.0 | 18.0 | 0.00 | 0.00 | 0.00 | 77 | 1013.3 |
| 20260505095505 | 67 | 132 | 13.0 | 17.0 | 0.00 | 0.00 | 0.00 | 77 | 1013.3 |
| 20260505095004 | 67 | 141 | 12.0 | 17.0 | 0.00 | 0.00 | 0.00 | 77 | 1013.3 |
| 20260505094504 | 67 | 155 | 12.0 | 17.0 | 0.00 | 0.00 | 0.00 | 77 | 1013.3 |
| 20260505094003 | 67 | 151 | 11.0 | 17.0 | 0.00 | 0.00 | 0.00 | 77 | 1013.3 |
| 20260505093504 | 68 | 136 | 12.0 | 17.0 | 0.00 | 0.00 | 0.00 | 77 | 1013.3 |
| 20260505093004 | 68 | 142 | 13.0 | 17.0 | 0.00 | 0.00 | 0.00 | 77 | 1013.3 |
| 20260505092504 | 67 | 150 | 11.0 | 15.0 | 0.00 | 0.00 | 0.00 | 77 | 1013.3 |
| 20260505092004 | 67 | 145 | 11.0 | 15.0 | 0.00 | 0.00 | 0.00 | 78 | 1013.3 |
| 20260505091503 | 67 | 134 | 10.0 | 15.0 | 0.00 | 0.00 | 0.00 | 78 | 1013.3 |
| 20260505091215 | 67 | 111 | 10.0 | 15.0 | 0.00 | 0.00 | 0.00 | 78 | 1013.3 |
| 20260505090503 | 67 | 121 | 12.0 | 17.0 | 0.00 | 0.00 | 0.00 | 78 | 1013.3 |
| 20260505090003 | 67 | 133 | 12.0 | 17.0 | 0.00 | 0.00 | 0.00 | 78 | 1013.3 |
| 20260505085503 | 67 | 125 | 11.0 | 14.0 | 0.00 | 0.00 | 0.00 | 78 | 1014.3 |
| 20260505085003 | 67 | 122 | 11.0 | 15.0 | 0.00 | 0.00 | 0.00 | 78 | 1014.3 |
| 20260505084714 | 67 | 124 | 10.0 | 15.0 | 0.00 | 0.00 | 0.00 | 78 | 1014.3 |
| 20260505084003 | 67 | 122 | 10.0 | 14.0 | 0.00 | 0.00 | 0.00 | 79 | 1014.3 |
| 20260505083503 | 66 | 115 | 10.0 | 14.0 | 0.00 | 0.00 | 0.00 | 79 | 1014.3 |
| 20260505083213 | 66 | 119 | 9.0 | 12.0 | 0.00 | 0.00 | 0.00 | 79 | 1014.3 |
| 20260505082503 | 66 | 130 | 9.0 | 14.0 | 0.00 | 0.00 | 0.00 | 79 | 1014.3 |
| 20260505082003 | 66 | 128 | 10.0 | 18.0 | 0.00 | 0.00 | 0.00 | 80 | 1014.3 |
| 20260505081503 | 66 | 132 | 11.0 | 18.0 | 0.00 | 0.00 | 0.00 | 80 | 1014.3 |
| 20260505081003 | 66 | 131 | 13.0 | 17.0 | 0.00 | 0.00 | 0.00 | 81 | 1014.3 |
| 20260505080503 | 66 | 125 | 13.0 | 17.0 | 0.00 | 0.00 | 0.00 | 80 | 1014.3 |
| 20260505080216 | 66 | 122 | 13.0 | 18.0 | 0.00 | 0.00 | 0.00 | 81 | 1014.3 |
| 20260505075714 | 66 | 123 | 10.0 | 18.0 | 0.00 | 0.00 | 0.00 | 82 | 1014.3 |
| 20260505075003 | 66 | 107 | 9.0 | 15.0 | 0.00 | 0.00 | 0.00 | 82 | 1014.3 |
| 20260505074503 | 65 | 111 | 11.0 | 15.0 | 0.00 | 0.00 | 0.00 | 82 | 1014.3 |
| 20260505074003 | 65 | 125 | 10.0 | 13.0 | 0.00 | 0.00 | 0.00 | 82 | 1014.3 |
| 20260505073716 | 65 | 122 | 11.0 | 14.0 | 0.00 | 0.00 | 0.00 | 82 | 1014.3 |
| 20260505073003 | 64 | 109 | 11.0 | 14.0 | 0.00 | 0.00 | 0.00 | 83 | 1014.3 |
| 20260505072503 | 64 | 122 | 9.0 | 14.0 | 0.00 | 0.00 | 0.00 | 83 | 1014.3 |
| 20260505072003 | 64 | 129 | 8.0 | 11.0 | 0.00 | 0.00 | 0.00 | 83 | 1014.3 |
| 20260505071503 | 64 | 111 | 8.0 | 11.0 | 0.00 | 0.00 | 0.00 | 83 | 1014.3 |
| 20260505071003 | 64 | 105 | 8.0 | 11.0 | 0.00 | 0.00 | 0.00 | 83 | 1014.3 |
| 20260505070714 | 64 | 128 | 8.0 | 14.0 | 0.00 | 0.00 | 0.00 | 83 | 1014.3 |
| 20260505070004 | 63 | 121 | 10.0 | 15.0 | 0.00 | 0.00 | 0.00 | 83 | 1014.3 |
| 20260505065504 | 63 | 110 | 9.0 | 15.0 | 0.00 | 0.00 | 0.00 | 83 | 1014.3 |
| 20260505065004 | 63 | 111 | 9.0 | 14.0 | 0.00 | 0.00 | 0.00 | 83 | 1014.3 |
| 20260505064504 | 63 | 112 | 10.0 | 15.0 | 0.00 | 0.00 | 0.00 | 83 | 1014.3 |
| 20260505064219 | 63 | 103 | 10.0 | 15.0 | 0.00 | 0.00 | 0.00 | 82 | 1014.3 |
| 20260505063504 | 63 | 109 | 11.0 | 17.0 | 0.00 | 0.00 | 0.00 | 82 | 1014.3 |
| 20260505063215 | 63 | 121 | 10.0 | 17.0 | 0.00 | 0.00 | 0.00 | 82 | 1014.3 |
| 20260505062504 | 63 | 127 | 9.0 | 18.0 | 0.00 | 0.00 | 0.00 | 82 | 1013.3 |
| 20260505062004 | 63 | 111 | 10.0 | 18.0 | 0.00 | 0.00 | 0.00 | 82 | 1013.3 |
| 20260505061504 | 63 | 99 | 10.0 | 15.0 | 0.00 | 0.00 | 0.00 | 82 | 1013.3 |
| 20260505061004 | 63 | 101 | 12.0 | 16.0 | 0.00 | 0.00 | 0.00 | 82 | 1013.3 |
| 20260505060504 | 63 | 106 | 13.0 | 17.0 | 0.00 | 0.00 | 0.00 | 82 | 1013.3 |
| 20260505060004 | 63 | 93 | 13.0 | 19.0 | 0.00 | 0.00 | 0.00 | 82 | 1013.3 |
| 20260505055504 | 63 | 86 | 12.0 | 19.0 | 0.00 | 0.00 | 0.00 | 82 | 1013.3 |
| 20260505055004 | 63 | 98 | 11.0 | 14.0 | 0.00 | 0.00 | 0.00 | 83 | 1013.3 |
| 20260505054504 | 63 | 102 | 10.0 | 14.0 | 0.00 | 0.00 | 0.00 | 83 | 1013.3 |
| 20260505054004 | 63 | 118 | 9.0 | 14.0 | 0.00 | 0.00 | 0.00 | 83 | 1013.3 |
| 20260505053503 | 63 | 118 | 10.0 | 14.0 | 0.00 | 0.00 | 0.00 | 83 | 1013.3 |
| 20260505053004 | 63 | 109 | 12.0 | 18.0 | 0.00 | 0.00 | 0.00 | 83 | 1013.3 |
| 20260505052504 | 63 | 105 | 13.0 | 18.0 | 0.00 | 0.00 | 0.00 | 83 | 1013.3 |
| 20260505052004 | 63 | 107 | 12.0 | 16.0 | 0.00 | 0.00 | 0.00 | 83 | 1013.3 |
| 20260505051503 | 63 | 117 | 12.0 | 16.0 | 0.00 | 0.00 | 0.00 | 83 | 1013.3 |
| 20260505051004 | 63 | 114 | 12.0 | 15.0 | 0.00 | 0.00 | 0.00 | 83 | 1013.3 |
| 20260505050503 | 63 | 109 | 13.0 | 15.0 | 0.00 | 0.00 | 0.00 | 83 | 1013.3 |
| 20260505041715 | 62 | 118 | 11.0 | 15.0 | 0.00 | 0.00 | 0.00 | 85 | 1013.3 |
| 20260505041003 | 62 | 106 | 11.0 | 15.0 | 0.00 | 0.00 | 0.00 | 85 | 1013.3 |
| 20260505040503 | 62 | 105 | 11.0 | 17.0 | 0.00 | 0.00 | 0.00 | 85 | 1013.3 |
| 20260505040004 | 62 | 107 | 12.0 | 17.0 | 0.00 | 0.00 | 0.00 | 85 | 1013.3 |
| 20260505035503 | 62 | 106 | 12.0 | 17.0 | 0.00 | 0.00 | 0.00 | 85 | 1013.3 |
| 20260505035003 | 62 | 99 | 12.0 | 16.0 | 0.00 | 0.00 | 0.00 | 85 | 1013.3 |
| 20260505034503 | 62 | 96 | 13.0 | 16.0 | 0.00 | 0.00 | 0.00 | 85 | 1013.3 |
| 20260505034003 | 62 | 100 | 12.0 | 16.0 | 0.00 | 0.00 | 0.00 | 85 | 1013.3 |
| 20260505033714 | 62 | 106 | 10.0 | 15.0 | 0.00 | 0.00 | 0.00 | 85 | 1013.3 |
| 20260505033004 | 62 | 110 | 10.0 | 17.0 | 0.00 | 0.00 | 0.00 | 85 | 1013.3 |
| 20260505032503 | 62 | 99 | 11.0 | 17.0 | 0.00 | 0.00 | 0.00 | 85 | 1013.3 |
| 20260505032004 | 62 | 108 | 11.0 | 17.0 | 0.00 | 0.00 | 0.00 | 85 | 1013.3 |
| 20260505031715 | 62 | 112 | 11.0 | 17.0 | 0.00 | 0.00 | 0.00 | 85 | 1013.3 |
| 20260505031003 | 62 | 112 | 12.0 | 15.0 | 0.00 | 0.00 | 0.00 | 85 | 1013.3 |
| 20260505030503 | 63 | 120 | 11.0 | 14.0 | 0.00 | 0.00 | 0.00 | 84 | 1013.3 |
| 20260505030005 | 62 | 114 | 10.0 | 15.0 | 0.00 | 0.00 | 0.00 | 84 | 1013.3 |
| 20260505025504 | 63 | 116 | 9.0 | 15.0 | 0.00 | 0.00 | 0.00 | 84 | 1013.3 |
| 20260505025215 | 63 | 113 | 9.0 | 15.0 | 0.00 | 0.00 | 0.00 | 84 | 1013.3 |
| 20260505024504 | 63 | 115 | 10.0 | 19.0 | 0.00 | 0.00 | 0.00 | 84 | 1013.3 |
| 20260505024004 | 63 | 116 | 12.0 | 19.0 | 0.00 | 0.00 | 0.00 | 84 | 1013.3 |
| 20260505023504 | 63 | 115 | 10.0 | 17.0 | 0.00 | 0.00 | 0.00 | 84 | 1013.3 |
| 20260505023217 | 63 | 110 | 11.0 | 17.0 | 0.00 | 0.00 | 0.00 | 84 | 1013.3 |
| 20260505022504 | 63 | 105 | 10.0 | 14.0 | 0.00 | 0.00 | 0.00 | 84 | 1013.3 |
| 20260505022218 | 63 | 107 | 10.0 | 14.0 | 0.00 | 0.00 | 0.00 | 84 | 1013.3 |
| 20260505021504 | 63 | 105 | 11.0 | 14.0 | 0.00 | 0.00 | 0.00 | 84 | 1013.3 |
| 20260505021004 | 63 | 107 | 11.0 | 15.0 | 0.00 | 0.00 | 0.00 | 84 | 1013.3 |
| 20260505020504 | 63 | 100 | 10.0 | 15.0 | 0.00 | 0.00 | 0.00 | 84 | 1013.3 |
| 20260505020004 | 63 | 109 | 8.0 | 12.0 | 0.00 | 0.00 | 0.00 | 84 | 1013.3 |
| 20260505015504 | 63 | 140 | 9.0 | 14.0 | 0.00 | 0.00 | 0.00 | 84 | 1013.3 |
| 20260505015004 | 63 | 132 | 10.0 | 14.0 | 0.00 | 0.00 | 0.00 | 84 | 1013.3 |
| 20260505014714 | 63 | 116 | 9.0 | 14.0 | 0.00 | 0.00 | 0.00 | 84 | 1013.3 |
| 20260505014004 | 63 | 100 | 10.0 | 13.0 | 0.00 | 0.00 | 0.00 | 84 | 1013.3 |
| 20260505013504 | 63 | 111 | 9.0 | 13.0 | 0.00 | 0.00 | 0.00 | 84 | 1013.3 |
| 20260505013003 | 63 | 124 | 9.0 | 12.0 | 0.00 | 0.00 | 0.00 | 84 | 1013.3 |
| 20260505012504 | 63 | 115 | 9.0 | 12.0 | 0.00 | 0.00 | 0.00 | 84 | 1013.3 |
| 20260505012003 | 63 | 106 | 9.0 | 12.0 | 0.00 | 0.00 | 0.00 | 84 | 1013.3 |
| 20260505011504 | 63 | 115 | 9.0 | 13.0 | 0.00 | 0.00 | 0.00 | 84 | 1013.3 |
| 20260505011003 | 63 | 134 | 9.0 | 13.0 | 0.00 | 0.00 | 0.00 | 84 | 1013.3 |
| 20260505010503 | 63 | 121 | 9.0 | 13.0 | 0.00 | 0.00 | 0.00 | 83 | 1013.3 |
| 20260505010005 | 63 | 101 | 9.0 | 14.0 | 0.00 | 0.00 | 0.00 | 83 | 1013.3 |
| 20260505005503 | 63 | 107 | 10.0 | 14.0 | 0.00 | 0.00 | 0.00 | 83 | 1013.3 |
| 20260505005004 | 63 | 121 | 10.0 | 17.0 | 0.00 | 0.00 | 0.00 | 83 | 1013.3 |
| 20260505004714 | 63 | 123 | 9.0 | 17.0 | 0.00 | 0.00 | 0.00 | 83 | 1013.3 |
| 20260505004004 | 63 | 119 | 10.0 | 17.0 | 0.00 | 0.00 | 0.00 | 82 | 1014.3 |
| 20260505003503 | 63 | 106 | 10.0 | 17.0 | 0.00 | 0.00 | 0.00 | 82 | 1014.3 |
| 20260505003213 | 63 | 92 | 11.0 | 17.0 | 0.00 | 0.00 | 0.00 | 82 | 1014.3 |
| 20260505002716 | 63 | 100 | 12.0 | 17.0 | 0.00 | 0.00 | 0.00 | 82 | 1014.3 |
| 20260505002003 | 63 | 112 | 11.0 | 14.0 | 0.00 | 0.00 | 0.00 | 81 | 1014.3 |
| 20260505001504 | 64 | 126 | 10.0 | 17.0 | 0.00 | 0.00 | 0.00 | 81 | 1014.3 |
| 20260505001003 | 64 | 124 | 10.0 | 17.0 | 0.00 | 0.00 | 0.00 | 81 | 1014.3 |
| 20260505000503 | 64 | 128 | 12.0 | 21.0 | 0.00 | 0.00 | 0.00 | 80 | 1014.3 |
| 20260505000003 | 64 | 135 | 14.0 | 21.0 | 0.00 | 0.00 | 0.00 | 80 | 1014.3 |
| 20260504235505 | 64 | 127 | 12.0 | 17.0 | 0.00 | 0.00 | 0.00 | 80 | 1014.3 |
| 20260504235005 | 64 | 148 | 10.0 | 17.0 | 0.00 | 0.00 | 0.00 | 80 | 1014.3 |
| 20260504234503 | 64 | 147 | 10.0 | 14.0 | 0.00 | 0.00 | 0.00 | 80 | 1014.3 |
| 20260504234004 | 64 | 130 | 11.0 | 18.0 | 0.00 | 0.00 | 0.00 | 80 | 1014.3 |
| 20260504233503 | 64 | 135 | 11.0 | 18.0 | 0.00 | 0.00 | 0.00 | 80 | 1014.3 |
| 20260504233214 | 64 | 140 | 11.0 | 18.0 | 0.00 | 0.00 | 0.00 | 80 | 1014.3 |
| 20260504232504 | 64 | 137 | 12.0 | 17.0 | 0.00 | 0.00 | 0.00 | 80 | 1014.3 |
| 20260504232004 | 64 | 128 | 11.0 | 17.0 | 0.00 | 0.00 | 0.00 | 80 | 1014.3 |
| 20260504231504 | 64 | 132 | 12.0 | 17.0 | 0.00 | 0.00 | 0.00 | 80 | 1014.3 |
| 20260504231004 | 64 | 126 | 12.0 | 15.0 | 0.00 | 0.00 | 0.00 | 80 | 1014.3 |
| 20260504230714 | 64 | 132 | 12.0 | 15.0 | 0.00 | 0.00 | 0.00 | 80 | 1014.3 |
| 20260504230004 | 64 | 136 | 12.0 | 21.0 | 0.00 | 0.00 | 0.00 | 80 | 1014.3 |
| 20260504225504 | 64 | 107 | 12.0 | 21.0 | 0.00 | 0.00 | 0.00 | 80 | 1014.3 |
| 20260504225004 | 64 | 105 | 10.0 | 15.0 | 0.00 | 0.00 | 0.00 | 80 | 1014.3 |
| 20260504224504 | 64 | 131 | 11.0 | 15.0 | 0.00 | 0.00 | 0.00 | 80 | 1014.3 |
| 20260504224214 | 64 | 123 | 10.0 | 15.0 | 0.00 | 0.00 | 0.00 | 79 | 1014.3 |
| 20260504223504 | 64 | 115 | 9.0 | 14.0 | 0.00 | 0.00 | 0.00 | 79 | 1014.3 |
| 20260504223004 | 64 | 119 | 10.0 | 14.0 | 0.00 | 0.00 | 0.00 | 79 | 1014.3 |
| 20260504222504 | 64 | 123 | 11.0 | 14.0 | 0.00 | 0.00 | 0.00 | 79 | 1014.3 |
| 20260504222004 | 64 | 127 | 11.0 | 14.0 | 0.00 | 0.00 | 0.00 | 79 | 1014.3 |
| 20260504221504 | 64 | 127 | 10.0 | 17.0 | 0.00 | 0.00 | 0.00 | 79 | 1014.3 |
| 20260504221004 | 64 | 129 | 9.0 | 17.0 | 0.00 | 0.00 | 0.00 | 79 | 1015.3 |
| 20260504220504 | 64 | 126 | 9.0 | 16.0 | 0.00 | 0.00 | 0.00 | 79 | 1015.3 |
| 20260504220004 | 64 | 128 | 9.0 | 16.0 | 0.00 | 0.00 | 0.00 | 78 | 1015.3 |
| 20260504215504 | 64 | 134 | 10.0 | 12.0 | 0.00 | 0.00 | 0.00 | 78 | 1014.3 |
| 20260504215218 | 64 | 123 | 9.0 | 13.0 | 0.00 | 0.00 | 0.00 | 78 | 1014.3 |
| 20260504214504 | 64 | 126 | 9.0 | 18.0 | 0.00 | 0.00 | 0.00 | 78 | 1014.3 |
| 20260504214005 | 64 | 122 | 9.0 | 18.0 | 0.00 | 0.00 | 0.00 | 78 | 1014.3 |
| 20260504213503 | 64 | 112 | 8.0 | 14.0 | 0.00 | 0.00 | 0.00 | 78 | 1014.3 |
| 20260504213004 | 64 | 128 | 9.0 | 14.0 | 0.00 | 0.00 | 0.00 | 78 | 1014.3 |
| 20260504212503 | 64 | 119 | 9.0 | 14.0 | 0.00 | 0.00 | 0.00 | 78 | 1014.3 |
| 20260504212003 | 64 | 117 | 8.0 | 14.0 | 0.00 | 0.00 | 0.00 | 78 | 1014.3 |
| 20260504211714 | 64 | 122 | 10.0 | 17.0 | 0.00 | 0.00 | 0.00 | 78 | 1014.3 |
| 20260504211003 | 64 | 119 | 12.0 | 17.0 | 0.00 | 0.00 | 0.00 | 78 | 1014.3 |
| 20260504210715 | 64 | 118 | 12.0 | 14.0 | 0.00 | 0.00 | 0.00 | 78 | 1014.3 |
| 20260504210218 | 64 | 120 | 11.0 | 14.0 | 0.00 | 0.00 | 0.00 | 78 | 1014.3 |
| 20260504205503 | 64 | 109 | 10.0 | 14.0 | 0.00 | 0.00 | 0.00 | 78 | 1015.3 |
| 20260504205003 | 64 | 130 | 10.0 | 14.0 | 0.00 | 0.00 | 0.00 | 78 | 1015.3 |
| 20260504204503 | 64 | 145 | 10.0 | 15.0 | 0.00 | 0.00 | 0.00 | 78 | 1015.3 |
| 20260504204003 | 64 | 134 | 11.0 | 15.0 | 0.00 | 0.00 | 0.00 | 78 | 1015.3 |
| 20260504203503 | 64 | 128 | 11.0 | 15.0 | 0.00 | 0.00 | 0.00 | 77 | 1015.3 |
| 20260504203005 | 64 | 135 | 11.0 | 15.0 | 0.00 | 0.00 | 0.00 | 77 | 1015.3 |
| 20260504202714 | 64 | 138 | 10.0 | 13.0 | 0.00 | 0.00 | 0.00 | 77 | 1015.3 |
| 20260504202003 | 64 | 141 | 10.0 | 13.0 | 0.00 | 0.00 | 0.00 | 77 | 1015.3 |
| 20260504201504 | 64 | 140 | 11.0 | 13.0 | 0.00 | 0.00 | 0.00 | 77 | 1015.3 |
| 20260504201003 | 64 | 151 | 11.0 | 21.0 | 0.00 | 0.00 | 0.00 | 77 | 1015.3 |
| 20260504200503 | 64 | 153 | 12.0 | 21.0 | 0.00 | 0.00 | 0.00 | 77 | 1015.3 |
| 20260504200003 | 64 | 141 | 11.0 | 15.0 | 0.00 | 0.00 | 0.00 | 77 | 1015.3 |
| 20260504195504 | 64 | 133 | 10.0 | 13.0 | 0.00 | 0.00 | 0.00 | 77 | 1015.3 |
| 20260504195004 | 64 | 135 | 11.0 | 17.0 | 0.00 | 0.00 | 0.00 | 77 | 1015.3 |
| 20260504194505 | 64 | 139 | 11.0 | 17.0 | 0.00 | 0.00 | 0.00 | 76 | 1015.3 |
| 20260504194215 | 64 | 142 | 12.0 | 17.0 | 0.00 | 0.00 | 0.00 | 76 | 1015.3 |
| 20260504193504 | 64 | 135 | 11.0 | 17.0 | 0.00 | 0.00 | 0.00 | 76 | 1015.3 |
| 20260504193004 | 64 | 140 | 13.0 | 17.0 | 0.00 | 0.00 | 0.00 | 76 | 1015.3 |
| 20260504192504 | 64 | 145 | 12.0 | 17.0 | 0.00 | 0.00 | 0.00 | 76 | 1014.3 |
| 20260504192004 | 64 | 140 | 11.0 | 17.0 | 0.00 | 0.00 | 0.00 | 76 | 1014.3 |
| 20260504191715 | 64 | 132 | 11.0 | 15.0 | 0.00 | 0.00 | 0.00 | 76 | 1014.3 |
| 20260504191005 | 64 | 128 | 10.0 | 17.0 | 0.00 | 0.00 | 0.00 | 76 | 1014.3 |
| 20260504190504 | 64 | 135 | 11.0 | 17.0 | 0.00 | 0.00 | 0.00 | 76 | 1014.3 |
| 20260504190214 | 64 | 131 | 11.0 | 15.0 | 0.00 | 0.00 | 0.00 | 76 | 1014.3 |
| 20260504185504 | 64 | 133 | 10.0 | 15.0 | 0.00 | 0.00 | 0.00 | 76 | 1014.3 |
| 20260504185004 | 64 | 136 | 9.0 | 12.0 | 0.00 | 0.00 | 0.00 | 76 | 1014.3 |
| 20260504184713 | 64 | 139 | 9.0 | 12.0 | 0.00 | 0.00 | 0.00 | 76 | 1014.3 |
| 20260504184004 | 64 | 127 | 10.0 | 15.0 | 0.00 | 0.00 | 0.00 | 76 | 1014.3 |
| 20260504183504 | 64 | 121 | 11.0 | 15.0 | 0.00 | 0.00 | 0.00 | 76 | 1014.3 |
| 20260504183003 | 64 | 133 | 10.0 | 16.0 | 0.00 | 0.00 | 0.00 | 76 | 1014.3 |
| 20260504182504 | 65 | 139 | 10.0 | 17.0 | 0.00 | 0.00 | 0.00 | 76 | 1014.3 |
| 20260504182004 | 65 | 126 | 9.0 | 17.0 | 0.00 | 0.00 | 0.00 | 75 | 1014.3 |
| 20260504181504 | 65 | 116 | 9.0 | 11.0 | 0.00 | 0.00 | 0.00 | 75 | 1014.3 |
| 20260504181214 | 65 | 116 | 8.0 | 10.0 | 0.00 | 0.00 | 0.00 | 76 | 1014.3 |
| 20260504180504 | 65 | 131 | 10.0 | 13.0 | 0.00 | 0.00 | 0.00 | 75 | 1014.3 |
| 20260504180004 | 65 | 133 | 10.0 | 16.0 | 0.00 | 0.00 | 0.00 | 75 | 1014.3 |
| 20260504175504 | 65 | 128 | 8.0 | 16.0 | 0.00 | 0.00 | 0.00 | 75 | 1014.3 |
| 20260504175003 | 65 | 132 | 9.0 | 15.0 | 0.00 | 0.00 | 0.00 | 75 | 1014.3 |
| 20260504174504 | 65 | 132 | 11.0 | 15.0 | 0.00 | 0.00 | 0.00 | 75 | 1014.3 |
| 20260504174003 | 65 | 127 | 9.0 | 15.0 | 0.00 | 0.00 | 0.00 | 75 | 1014.3 |
| 20260504173715 | 65 | 128 | 8.0 | 15.0 | 0.00 | 0.00 | 0.00 | 75 | 1014.3 |
| 20260504173004 | 65 | 121 | 9.0 | 14.0 | 0.00 | 0.00 | 0.00 | 74 | 1014.3 |
| 20260504172503 | 65 | 136 | 10.0 | 14.0 | 0.00 | 0.00 | 0.00 | 74 | 1014.3 |
| 20260504172003 | 65 | 136 | 10.0 | 14.0 | 0.00 | 0.00 | 0.00 | 74 | 1014.3 |
| 20260504171503 | 65 | 136 | 9.0 | 13.0 | 0.00 | 0.00 | 0.00 | 74 | 1014.3 |
| 20260504171004 | 65 | 142 | 10.0 | 15.0 | 0.00 | 0.00 | 0.00 | 74 | 1014.3 |
| 20260504170503 | 65 | 143 | 11.0 | 15.0 | 0.00 | 0.00 | 0.00 | 73 | 1014.3 |